Regional Weather Roundup
Issued by NWS

Home | Current Version | Previous Version | Text Only | Print | Product List | Glossary On
Versions: 1 2 3 4 5 6 7 8 9 10 11 12 13 14 15 16 17 18 19 20 21 22 23 24 25 26 27 28 29 30 31 32 33 34 35 36 37 38 39 40 41 42 43 44 45 46 47 48 49 50
000
ASUS43 KDMX 181207
RWRIA

WEATHER ROUNDUP FOR IOWA
NATIONAL WEATHER SERVICE DES MOINES IA
700 AM CDT SAT APR 18 2015

NOTE: "FAIR" INDICATES FEW OR NO CLOUDS BELOW 12,000 FEET WITH NO
SIGNIFICANT WEATHER AND/OR OBSTRUCTIONS TO VISIBILITY.

* - THESE STATIONS ARE NOT NWS STATIONS...THUS NOT UNDER NWS
QUALITY CONTROL.  THEY ALSO DO NOT REPORT WEATHER SUCH
AS PRECIPITATION OR FOG.

IAZ001>003-012>014-020>022-031>034-043>046-181300-
   NORTHWEST IOWA

CITY           SKY/WX    TMP DP  RH WIND       PRES   REMARKS
CARROLL *      CLOUDY    55  52  88 CALM      29.98R
CHEROKEE *     CLOUDY    58  43  57 E13       29.98S
DENISON *      CLOUDY    57  54  88 NE8       29.94F
LE MARS *      CLOUDY    57  43  58 W5        29.99R
ORANGE CITY *  MOCLDY    55  37  50 E7        29.98S
SHELDON *      CLOUDY    55  34  44 E12       29.98F
SIOUX CITY     CLOUDY    56  50  80 N8        29.96F
6HR MIN TEMP:  56; 6HR MAX TEMP:  64; 6HR PCP:  0.03;

SPENCER        CLOUDY    55  38  52 E10       30.00F
6HR MIN TEMP:  50; 6HR MAX TEMP:  56;

STORM LAKE *   CLOUDY    55  45  67 E12       29.99F
$$

IAZ055>058-069>071-079>083-090>094-181300-
   SOUTHWEST IOWA

CITY           SKY/WX    TMP DP  RH WIND       PRES   REMARKS
ATLANTIC *     CLOUDY    61  57  88 NE6       29.95R
AUDUBON *      CLOUDY    59  55  88 E3        29.98S
CLARINDA *     CLOUDY    61  57  88 N5        29.94F
COUNCIL BLFS * CLOUDY    61  59  94 E8        29.94R
CRESTON *      CLOUDY    59  57  94 NE10      29.97R
HARLAN  *      MOCLDY    61  61 100 E13       29.97F
LAMONI         CLOUDY    60  54  80 VRB5      29.95S
6HR MIN TEMP:  58; 6HR MAX TEMP:  67;

RED OAK *      MOCLDY    63  55  77 E12       29.94R
SHENANDOAH *   CLOUDY    59  55  88 NE7       29.93S
$$

IAZ047>049-059>061-072>074-084-181300-
   CENTRAL IOWA

CITY           SKY/WX    TMP DP  RH WIND       PRES   REMARKS
AMES           RAIN      59  56  89 N7        29.99F FOG
6HR MIN TEMP:  55; 6HR MAX TEMP:  61; 6HR PCP:  0.11;

ANKENY *       CLOUDY    61  57  88 N7        29.97F
CHARITON *     CLOUDY    59  54  82 NE6       29.97S
DES MOINES     CLOUDY    62  57  83 NE5       29.98R
6HR MIN TEMP:  62; 6HR MAX TEMP:  69; 6HR PCP:  0.16;

GRINNELL*      CLOUDY    59  50  72 E5        30.00R
KNOXVILLE *    MOCLDY    59  50  72 E6        29.97S
MARSHALLTOWN   CLOUDY    57  47  69 E5        29.99S
6HR MIN TEMP:  54; 6HR MAX TEMP:  60;

PELLA *        CLOUDY    59  53  81 E5        29.99F
PERRY *        HVY RAIN  59  57  94 E10       29.99S
$$

IAZ004>006-015-016-023>025-035-036-181300-
   NORTH CENTRAL IOWA

CITY           SKY/WX    TMP DP  RH WIND       PRES   REMARKS
ALGONA *       CLOUDY    57  39  51 E9        30.02S
CLARION *      CLOUDY    57  45  62 E13       30.00S
ESTHERVILLE    MOCLDY    50  38  63 NE9       30.02R
6HR MIN TEMP:  45; 6HR MAX TEMP:  54;

FORT DODGE *   CLOUDY    55  45  67 CALM      30.02R
MASON CITY     PTCLDY    47  40  76 NE6       30.04S
6HR MIN TEMP:  46; 6HR MAX TEMP:  53;

FOREST CITY *  MOCLDY    55  36  47 NE5       30.03R
IOWA FALLS *   MOCLDY    55  45  67 CALM      30.02R
$$

IAZ007>011-017>019-026>030-037>042-050>054-066-181300-
   NORTHEAST IOWA

CITY           SKY/WX    TMP DP  RH WIND       PRES   REMARKS
CEDAR RAPIDS   PTCLDY    55  50  83 NE8       29.99S
6HR MIN TEMP:  50; 6HR MAX TEMP:  60;

CHARLES CITY * CLEAR     55  41  58 NE9       30.04R
CLINTON *      MOCLDY    50  45  81 E7        30.04S
DECORAH *      PTCLDY    54  45  71 NE5       30.04S
DUBUQUE        PTCLDY    56  47  71 NE12      30.03S
6HR MIN TEMP:  53; 6HR MAX TEMP:  58;

MONTICELLO *   CLEAR     50  50 100 CALM      30.02R
OELWEIN *      CLEAR     55  43  62 E10       30.03S
WATERLOO       PTCLDY    53  44  71 E8        30.01R
6HR MIN TEMP:  49; 6HR MAX TEMP:  56;

$$

IAZ064-065-067-068-078-181300-
   EAST CENTRAL IOWA

CITY           SKY/WX    TMP DP  RH WIND       PRES   REMARKS
DAVENPORT      MOCLDY    54  45  71 CALM      30.01R
6HR MIN TEMP:  51; 6HR MAX TEMP:  58;

IOWA CITY      PTCLDY    51  48  89 CALM      30.01R
6HR MIN TEMP:  50; 6HR MAX TEMP:  57;

MT. PLEASANT * PTCLDY    55  50  85 NE3       29.99S
MUSCATINE *    CLEAR     52  48  87 CALM      30.01R
QUAD CITIES    PTCLDY    49  45  86 CALM      30.01R
6HR MIN TEMP:  48; 6HR MAX TEMP:  54;

$$

IAZ062-063-075>077-085>089-095>099-181300-
   SOUTHEAST IOWA

CITY           SKY/WX    TMP DP  RH WIND       PRES   REMARKS
BURLINGTON     MOCLDY    59  53  80 SE3       29.99S
6HR MIN TEMP:  56; 6HR MAX TEMP:  61;

FAIRFIELD *    PTCLDY    55  50  82 E5        29.99S
FORT MADISON * CLEAR     57  54  88 E6        30.00S
KEOKUK *       CLEAR     57  54  88 CALM      29.98S
OSKALOOSA *    MOCLDY    56  51  80 E6        29.99S
CENTERVILLE *  PTCLDY    59  55  88 E6        29.98S
OTTUMWA        CLOUDY    57  51  80 NE6       29.98S
6HR MIN TEMP:  53; 6HR MAX TEMP:  63;

WASHINGTON *   MOCLDY    55  55 100 E7        30.00S
$$

ABBREVIATIONS USED IN REMARKS
   TC - TEMPERATURES IN CELSIUS
  WCI - WIND CHILL INDEX
   HX - HEAT INDEX
  VSB - VISIBILITY
$$




USA.gov is the U.S. government's official web portal to all federal, state and local government web resources and services.